Miscellaneous Local Product
Issued by NWS Hastings, NE

Home | Current Version | Previous Version | Text Only | Print | Product List | Glossary On
Versions: 1 2 3 4 5 6 7 8 9 10 11 12 13 14 15 16 17 18 19 20 21 22 23 24 25 26 27 28 29 30 31 32 33 34 35 36 37 38 39 40 41 42 43 44 45 46 47 48 49 50
000
AXUS43 KGID 231502
MISGRI

GID CWA HOURLY WEATHER ROUNDUP
NATIONAL WEATHER SERVICE HASTINGS NE
900 AM CST THU FEB 23 2017

NOTE: "FAIR" INDICATES FEW OR NO CLOUDS BELOW 12,000 FEET WITH NO
SIGNIFICANT WEATHER AND/OR OBSTRUCTIONS TO VISIBILITY.

...SOUTH CENTRAL NEBRASKA...

CITY           SKY/WX    TMP DP  RH WIND       PRES   REMARKS
GRAND ISLAND   CLOUDY    32  32 100 NE24G32   29.72F FOG     WCI  19
HASTINGS       CLOUDY    34  32  92 NE22G32   29.70F WCI  22
KEARNEY        CLOUDY    34  28  80 NE22G29   29.70F WCI  22
ORD            CLOUDY    30  28  92 NE18      29.76F FOG     WCI  18
YORK           CLOUDY    34  34 100 NE22      29.72F FOG     WCI  22
AURORA         CLOUDY    33  33  97 NE24      29.71F FOG     WCI  21
LEXINGTON      CLOUDY    32  30  94 NE20G26   29.71S FOG     WCI  20
HOLDREGE       SNOW      32  32  99 NE22G29   29.67F VSB 1/4 WCI  20
HEBRON         CLOUDY    39  35  84 NE16G24   29.67F WCI  30

...NEBRASKA PANHANDLE...

CITY           SKY/WX    TMP DP  RH WIND       PRES   REMARKS
CHADRON        SNOW      27  24  89 NE10      29.79R VSB 1/4 WCI  17
ALLIANCE       HVY SNOW  25  23  92 NE14      29.71S VSB 1/4 WCI  13
SCOTTSBLUFF    HVY SNOW  27  24  89 E18       29.71R VSB 1/4 WCI  14
SIDNEY         CLOUDY    29  27  92 E15       29.67R WCI  18

...WESTERN AND NORTH CENTRAL NEBRASKA...

CITY           SKY/WX    TMP DP  RH WIND       PRES   REMARKS
VALENTINE      SNOW      25  22  88 NE15      29.82F VSB 1/2 WCI  13
AINSWORTH      LGT SNOW  27  26  99 NE12      29.82S WCI  16
ONEILL         LGT SNOW  30  29  95 NE14      29.82F WCI  19
BROKEN BOW     CLOUDY    30  29  96 NE20G25   29.74S FOG     WCI  17
IMPERIAL       CLOUDY    32  30  92 NE18      29.66S FOG     WCI  20
NORTH PLATTE   CLOUDY    31  28  89 NE15G25   29.71F WCI  20
MCCOOK         CLOUDY    35  32  88 NE21      29.66R WCI  24

...EASTERN NEBRASKA...

CITY           SKY/WX    TMP DP  RH WIND       PRES   REMARKS
NORFOLK        CLOUDY    32  29  88 NE18G25   29.81R WCI  20
SO SIOUX CITY  CLOUDY    37  32  82 NE14      29.84F WCI  28
TEKAMAH        CLOUDY    37  32  82 NE16      29.81F WCI  28
COLUMBUS       CLOUDY    34  28  80 NE17G23   29.80R WCI  23
ALBION         CLOUDY    33  30  89 NE17G23   29.79F WCI  22
OMAHA EPPLEY   CLOUDY    37  32  82 NE13      29.78F WCI  29
OFFUTT AFB     CLOUDY    37  33  84 NE14      29.76F WCI  28
MILLARD        CLOUDY    38  35  87 NE10G21   29.77F WCI  32
LINCOLN        CLOUDY    37  34  89 NE16G26   29.76F WCI  28
NEBRASKA CITY  CLOUDY    37  35  92 NE20G28   29.72F WCI  27
BEATRICE       CLOUDY    39  36  89 NE18G26   29.69F WCI  30
FALLS CITY     CLOUDY    41  38  89 NE12      29.71F

...NORTHERN KANSAS...

CITY           SKY/WX    TMP DP  RH WIND       PRES   REMARKS
GOODLAND       CLOUDY    34  34 100 E23G32    29.57F WCI  22
HILL CITY      CLOUDY    39  35  86 E23G29    29.63F WCI  28
NORTON         CLOUDY    37  30  75 NE20G28   29.64  WCI  27
PHILLIPSBURG   CLOUDY    39  34  81 NE16G28   29.65F WCI  30
SMITH CENTER   PTSUNNY   39  34  81 NE16      29.65R WCI  30
HAYS           SUNNY     44  37  76 NE21      29.57F
RUSSELL        SUNNY     46  37  71 NE18G25   29.57F
CONCORDIA      CLOUDY    43  37  79 NE22G32   29.61F
SALINA         CLOUDY    54  36  50 E22G38    29.54F
TOPEKA         CLOUDY    51  40  65 NE15      29.65F



USA.gov is the U.S. government's official web portal to all federal, state and local government web resources and services.